| time (UTC) | temp F | wind direction | speed MPH | gust MPH | rain 1hr in | rain 24hr in | rain mn in | humidity % | barometer mb |
| 20260508023325 | 82 | 28 | 3.0 | 0.0 | 0.00 | 0.00 | 0.00 | 75 | 1009.0 |
| 20260508022825 | 82 | 89 | 3.0 | 0.0 | 0.00 | 0.00 | 0.00 | 75 | 1009.0 |
| 20260508021822 | 82 | 15 | 3.0 | 0.0 | 0.00 | 0.00 | 0.00 | 74 | 1008.9 |
| 20260508021316 | 82 | 96 | 6.0 | 0.0 | 0.00 | 0.00 | 0.00 | 73 | 1008.8 |
| 20260508020816 | 82 | 286 | 1.0 | 0.0 | 0.00 | 0.00 | 0.00 | 73 | 1008.8 |
| 20260508020314 | 82 | 84 | 5.0 | 0.0 | 0.00 | 0.00 | 0.00 | 73 | 1008.8 |
| 20260508015813 | 83 | 11 | 2.0 | 0.0 | 0.00 | 0.00 | 0.00 | 74 | 1008.8 |
| 20260508015312 | 83 | 81 | 4.0 | 0.0 | 0.00 | 0.00 | 0.00 | 73 | 1008.8 |
| 20260508014812 | 83 | 65 | 5.0 | 0.0 | 0.00 | 0.00 | 0.00 | 73 | 1008.8 |
| 20260508014312 | 83 | 20 | 1.0 | 0.0 | 0.00 | 0.00 | 0.00 | 73 | 1008.8 |
| 20260508013812 | 83 | 88 | 6.0 | 0.0 | 0.00 | 0.00 | 0.00 | 73 | 1008.8 |
| 20260508013311 | 83 | 11 | 2.0 | 0.0 | 0.00 | 0.00 | 0.00 | 73 | 1008.8 |
| 20260508012811 | 83 | 46 | 3.0 | 0.0 | 0.00 | 0.00 | 0.00 | 72 | 1008.8 |
| 20260508012311 | 83 | 336 | 3.0 | 0.0 | 0.00 | 0.00 | 0.00 | 72 | 1008.8 |
| 20260508011815 | 83 | 8 | 1.0 | 0.0 | 0.00 | 0.00 | 0.00 | 72 | 1008.7 |
| 20260508011310 | 83 | 70 | 8.0 | 0.0 | 0.00 | 0.00 | 0.00 | 72 | 1008.7 |
| 20260508010810 | 83 | 56 | 3.0 | 0.0 | 0.00 | 0.00 | 0.00 | 71 | 1008.7 |
| 20260508010309 | 83 | 356 | 4.0 | 0.0 | 0.00 | 0.00 | 0.00 | 71 | 1008.6 |
| 20260508005809 | 83 | 20 | 3.0 | 0.0 | 0.00 | 0.00 | 0.00 | 72 | 1008.6 |
| 20260508005308 | 83 | 28 | 2.0 | 0.0 | 0.00 | 0.00 | 0.00 | 72 | 1008.4 |
| 20260508004808 | 83 | 6 | 1.0 | 0.0 | 0.00 | 0.00 | 0.00 | 73 | 1008.4 |
| 20260508004308 | 83 | 20 | 3.0 | 0.0 | 0.00 | 0.00 | 0.00 | 73 | 1008.4 |
| 20260508003808 | 83 | 46 | 4.0 | 0.0 | 0.00 | 0.00 | 0.00 | 73 | 1008.5 |
| 20260508003307 | 83 | 30 | 4.0 | 0.0 | 0.00 | 0.00 | 0.00 | 73 | 1008.7 |
| 20260508002807 | 83 | 56 | 3.0 | 0.0 | 0.00 | 0.00 | 0.00 | 73 | 1008.5 |
| 20260508002307 | 83 | 32 | 4.0 | 0.0 | 0.00 | 0.00 | 0.00 | 73 | 1008.4 |
| 20260508001806 | 83 | 25 | 3.0 | 0.0 | 0.00 | 0.00 | 0.00 | 74 | 1008.4 |
| 20260508001306 | 83 | 13 | 3.0 | 0.0 | 0.00 | 0.00 | 0.00 | 73 | 1008.4 |
| 20260508000806 | 83 | 348 | 7.0 | 0.0 | 0.00 | 0.00 | 0.00 | 73 | 1008.4 |
| 20260508000305 | 83 | 46 | 2.0 | 0.0 | 0.00 | 0.00 | 0.00 | 73 | 1008.3 |
| 20260507235802 | 83 | 84 | 6.0 | 0.0 | 0.00 | 0.00 | 0.00 | 73 | 1008.3 |
| 20260507235306 | 83 | 84 | 5.0 | 0.0 | 0.00 | 0.00 | 0.00 | 72 | 1008.3 |
| 20260507234800 | 84 | 33 | 4.0 | 0.0 | 0.00 | 0.00 | 0.00 | 72 | 1008.4 |
| 20260507233759 | 84 | 89 | 7.0 | 0.0 | 0.00 | 0.00 | 0.00 | 71 | 1008.2 |
| 20260507233258 | 84 | 74 | 3.0 | 0.0 | 0.00 | 0.00 | 0.00 | 71 | 1008.2 |
| 20260507232758 | 84 | 105 | 4.0 | 0.0 | 0.00 | 0.00 | 0.00 | 70 | 1008.2 |
| 20260507232258 | 84 | 9 | 5.0 | 0.0 | 0.00 | 0.00 | 0.00 | 70 | 1008.2 |
| 20260507231757 | 85 | 56 | 3.0 | 0.0 | 0.00 | 0.00 | 0.00 | 69 | 1008.0 |
| 20260507231257 | 86 | 4 | 4.0 | 0.0 | 0.00 | 0.00 | 0.00 | 67 | 1008.0 |
| 20260507230756 | 85 | 269 | 5.0 | 0.0 | 0.00 | 0.00 | 0.00 | 68 | 1008.0 |
| 20260507230254 | 85 | 274 | 5.0 | 0.0 | 0.00 | 0.00 | 0.00 | 68 | 1008.1 |
| 20260507225754 | 85 | 63 | 3.0 | 0.0 | 0.00 | 0.00 | 0.00 | 69 | 1008.0 |
| 20260507225254 | 85 | 39 | 1.0 | 0.0 | 0.00 | 0.00 | 0.00 | 69 | 1008.1 |
| 20260507224753 | 85 | 58 | 6.0 | 0.0 | 0.00 | 0.00 | 0.00 | 69 | 1008.1 |
| 20260507224252 | 85 | 46 | 4.0 | 0.0 | 0.00 | 0.00 | 0.00 | 69 | 1008.1 |
| 20260507223752 | 85 | 81 | 7.0 | 0.0 | 0.00 | 0.00 | 0.00 | 69 | 1008.1 |
| 20260507223251 | 85 | 351 | 4.0 | 0.0 | 0.00 | 0.00 | 0.00 | 69 | 1008.1 |
| 20260507222748 | 85 | 93 | 5.0 | 0.0 | 0.00 | 0.00 | 0.00 | 69 | 1007.9 |
| 20260507222246 | 85 | 63 | 2.0 | 0.0 | 0.00 | 0.00 | 0.00 | 69 | 1007.9 |
| 20260507221739 | 86 | 86 | 5.0 | 0.0 | 0.00 | 0.00 | 0.00 | 69 | 1008.0 |
| 20260507221223 | 86 | 84 | 4.0 | 0.0 | 0.00 | 0.00 | 0.00 | 69 | 1008.0 |
| 20260507220724 | 86 | 46 | 3.0 | 0.0 | 0.00 | 0.00 | 0.00 | 69 | 1007.9 |
| 20260507215704 | 85 | 6 | 4.0 | 0.0 | 0.00 | 0.00 | 0.00 | 69 | 1007.9 |
| 20260507215154 | 85 | 86 | 2.0 | 0.0 | 0.00 | 0.00 | 0.00 | 69 | 1007.8 |
| 20260507214654 | 85 | 70 | 4.0 | 0.0 | 0.00 | 0.00 | 0.00 | 70 | 1007.9 |
| 20260507214154 | 86 | 40 | 2.0 | 0.0 | 0.00 | 0.00 | 0.00 | 69 | 1007.8 |
| 20260507213653 | 86 | 1 | 4.0 | 0.0 | 0.00 | 0.00 | 0.00 | 69 | 1007.8 |
| 20260507213153 | 86 | 70 | 6.0 | 0.0 | 0.00 | 0.00 | 0.00 | 69 | 1007.7 |
| 20260507212653 | 86 | 89 | 9.0 | 0.0 | 0.00 | 0.00 | 0.00 | 68 | 1007.7 |
| 20260507212153 | 86 | 84 | 4.0 | 0.0 | 0.00 | 0.00 | 0.00 | 69 | 1007.8 |
| 20260507211652 | 86 | 77 | 3.0 | 0.0 | 0.00 | 0.00 | 0.00 | 67 | 1007.7 |
| 20260507211152 | 87 | 76 | 5.0 | 0.0 | 0.00 | 0.00 | 0.00 | 69 | 1007.9 |
| 20260507205648 | 87 | 77 | 3.0 | 0.0 | 0.00 | 0.00 | 0.00 | 68 | 1008.0 |
| 20260507205147 | 87 | 4 | 5.0 | 0.0 | 0.00 | 0.00 | 0.00 | 66 | 1008.0 |
| 20260507204643 | 87 | 33 | 3.0 | 0.0 | 0.00 | 0.00 | 0.00 | 66 | 1008.0 |
| 20260507204143 | 88 | 350 | 4.0 | 0.0 | 0.00 | 0.00 | 0.00 | 65 | 1008.0 |
| 20260507203642 | 88 | 310 | 6.0 | 0.0 | 0.00 | 0.00 | 0.00 | 65 | 1008.0 |
| 20260507203147 | 88 | 51 | 3.0 | 0.0 | 0.00 | 0.00 | 0.00 | 66 | 1008.1 |
| 20260507202641 | 88 | 15 | 3.0 | 0.0 | 0.00 | 0.00 | 0.00 | 66 | 1008.1 |
| 20260507202141 | 88 | 103 | 4.0 | 0.0 | 0.00 | 0.00 | 0.00 | 66 | 1008.1 |
| 20260507201640 | 88 | 354 | 6.0 | 0.0 | 0.00 | 0.00 | 0.00 | 67 | 1008.2 |
| 20260507201140 | 88 | 75 | 3.0 | 0.0 | 0.00 | 0.00 | 0.00 | 66 | 1008.2 |
| 20260507200640 | 89 | 14 | 6.0 | 0.0 | 0.00 | 0.00 | 0.00 | 66 | 1008.3 |
| 20260507200140 | 89 | 135 | 3.0 | 0.0 | 0.00 | 0.00 | 0.00 | 65 | 1008.4 |
| 20260507195639 | 89 | 86 | 4.0 | 0.0 | 0.00 | 0.00 | 0.00 | 64 | 1008.4 |
| 20260507195139 | 89 | 348 | 3.0 | 0.0 | 0.00 | 0.00 | 0.00 | 63 | 1008.4 |
| 20260507194638 | 89 | 250 | 5.0 | 0.0 | 0.00 | 0.00 | 0.00 | 63 | 1008.6 |
| 20260507194138 | 89 | 15 | 6.0 | 0.0 | 0.00 | 0.00 | 0.00 | 63 | 1008.5 |
| 20260507193638 | 89 | 354 | 4.0 | 0.0 | 0.00 | 0.00 | 0.00 | 64 | 1008.6 |
| 20260507193137 | 89 | 88 | 7.0 | 0.0 | 0.00 | 0.00 | 0.00 | 65 | 1008.7 |
| 20260507192637 | 89 | 6 | 4.0 | 0.0 | 0.00 | 0.00 | 0.00 | 64 | 1008.7 |
| 20260507192137 | 89 | 23 | 3.0 | 0.0 | 0.00 | 0.00 | 0.00 | 63 | 1008.8 |
| 20260507191637 | 89 | 18 | 5.0 | 0.0 | 0.00 | 0.00 | 0.00 | 63 | 1008.9 |
| 20260507191136 | 89 | 28 | 2.0 | 0.0 | 0.00 | 0.00 | 0.00 | 61 | 1008.9 |
| 20260507190636 | 90 | 46 | 2.0 | 0.0 | 0.00 | 0.00 | 0.00 | 62 | 1008.9 |
| 20260507190136 | 90 | 11 | 5.0 | 0.0 | 0.00 | 0.00 | 0.00 | 62 | 1009.0 |
| 20260507185635 | 89 | 8 | 6.0 | 0.0 | 0.00 | 0.00 | 0.00 | 64 | 1008.9 |
| 20260507185135 | 89 | 63 | 6.0 | 0.0 | 0.00 | 0.00 | 0.00 | 65 | 1009.0 |
| 20260507184635 | 89 | 56 | 3.0 | 0.0 | 0.00 | 0.00 | 0.00 | 64 | 1009.2 |
| 20260507184135 | 89 | 28 | 4.0 | 0.0 | 0.00 | 0.00 | 0.00 | 65 | 1009.4 |
| 20260507183634 | 89 | 331 | 7.0 | 0.0 | 0.00 | 0.00 | 0.00 | 65 | 1009.4 |
| 20260507183134 | 90 | 334 | 7.0 | 0.0 | 0.00 | 0.00 | 0.00 | 65 | 1009.5 |
| 20260507182634 | 89 | 1 | 4.0 | 0.0 | 0.00 | 0.00 | 0.00 | 65 | 1009.6 |
| 20260507181633 | 89 | 8 | 5.0 | 0.0 | 0.00 | 0.00 | 0.00 | 66 | 1009.8 |
| 20260507181133 | 89 | 13 | 7.0 | 0.0 | 0.00 | 0.00 | 0.00 | 67 | 1009.9 |
| 20260507180629 | 89 | 9 | 2.0 | 0.0 | 0.00 | 0.00 | 0.00 | 67 | 1009.8 |
| 20260507180129 | 89 | 25 | 2.0 | 0.0 | 0.00 | 0.00 | 0.00 | 67 | 1009.9 |
| 20260507175628 | 89 | 72 | 5.0 | 0.0 | 0.00 | 0.00 | 0.00 | 67 | 1010.0 |
| 20260507175127 | 89 | 135 | 2.0 | 0.0 | 0.00 | 0.00 | 0.00 | 66 | 1010.0 |
| 20260507174630 | 89 | 1 | 5.0 | 0.0 | 0.00 | 0.00 | 0.00 | 66 | 1010.1 |
| 20260507174127 | 89 | 46 | 1.0 | 0.0 | 0.00 | 0.00 | 0.00 | 67 | 1010.2 |
| 20260507173626 | 89 | 15 | 4.0 | 0.0 | 0.00 | 0.00 | 0.00 | 67 | 1010.2 |
| 20260507173126 | 89 | 6 | 6.0 | 0.0 | 0.00 | 0.00 | 0.00 | 66 | 1010.4 |
| 20260507172626 | 89 | 28 | 2.0 | 0.0 | 0.00 | 0.00 | 0.00 | 67 | 1010.4 |
| 20260507172126 | 89 | 355 | 3.0 | 0.0 | 0.00 | 0.00 | 0.00 | 66 | 1010.4 |
| 20260507171625 | 88 | 56 | 4.0 | 0.0 | 0.00 | 0.00 | 0.00 | 67 | 1010.4 |
| 20260507171125 | 88 | 51 | 3.0 | 0.0 | 0.00 | 0.00 | 0.00 | 67 | 1010.5 |
| 20260507170625 | 88 | 108 | 4.0 | 0.0 | 0.00 | 0.00 | 0.00 | 67 | 1010.4 |
| 20260507170124 | 88 | 157 | 2.0 | 0.0 | 0.00 | 0.00 | 0.00 | 66 | 1010.5 |
| 20260507165650 | 88 | 89 | 4.0 | 0.0 | 0.00 | 0.00 | 0.00 | 66 | 1010.6 |
| 20260507164121 | 88 | 13 | 3.0 | 0.0 | 0.00 | 0.00 | 0.00 | 67 | 1010.6 |
| 20260507163620 | 88 | 1 | 3.0 | 0.0 | 0.00 | 0.00 | 0.00 | 66 | 1010.7 |
| 20260507163119 | 88 | 6 | 5.0 | 0.0 | 0.00 | 0.00 | 0.00 | 65 | 1010.7 |
| 20260507162619 | 88 | 311 | 4.0 | 0.0 | 0.00 | 0.00 | 0.00 | 65 | 1010.7 |
| 20260507162119 | 88 | 147 | 4.0 | 0.0 | 0.00 | 0.00 | 0.00 | 65 | 1010.8 |
| 20260507161618 | 88 | 46 | 3.0 | 0.0 | 0.00 | 0.00 | 0.00 | 65 | 1010.8 |
| 20260507161117 | 88 | 89 | 4.0 | 0.0 | 0.00 | 0.00 | 0.00 | 66 | 1010.8 |
| 20260507160617 | 88 | 83 | 4.0 | 0.0 | 0.00 | 0.00 | 0.00 | 66 | 1011.0 |
| 20260507160117 | 88 | 81 | 4.0 | 0.0 | 0.00 | 0.00 | 0.00 | 66 | 1011.0 |
| 20260507155617 | 87 | 89 | 4.0 | 0.0 | 0.00 | 0.00 | 0.00 | 66 | 1010.9 |
| 20260507155114 | 87 | 269 | 1.0 | 0.0 | 0.00 | 0.00 | 0.00 | 66 | 1011.0 |
| 20260507154613 | 87 | 88 | 5.0 | 0.0 | 0.00 | 0.00 | 0.00 | 66 | 1011.0 |
| 20260507153612 | 87 | 334 | 5.0 | 0.0 | 0.00 | 0.00 | 0.00 | 66 | 1011.2 |
| 20260507153112 | 87 | 15 | 1.0 | 0.0 | 0.00 | 0.00 | 0.00 | 67 | 1011.2 |
| 20260507152612 | 87 | 18 | 2.0 | 0.0 | 0.00 | 0.00 | 0.00 | 67 | 1011.2 |
| 20260507152112 | 87 | 28 | 2.0 | 0.0 | 0.00 | 0.00 | 0.00 | 67 | 1011.2 |
| 20260507151111 | 87 | 35 | 3.0 | 0.0 | 0.00 | 0.00 | 0.00 | 67 | 1011.3 |
| 20260507150044 | 86 | 63 | 3.0 | 0.0 | 0.00 | 0.00 | 0.00 | 67 | 1011.3 |
| 20260507145544 | 86 | 76 | 2.0 | 0.0 | 0.00 | 0.00 | 0.00 | 67 | 1011.2 |
| 20260507145022 | 86 | 51 | 4.0 | 0.0 | 0.00 | 0.00 | 0.00 | 68 | 1011.1 |
| 20260507144522 | 86 | 35 | 4.0 | 0.0 | 0.00 | 0.00 | 0.00 | 68 | 1011.1 |
| 20260507144021 | 86 | 46 | 2.0 | 0.0 | 0.00 | 0.00 | 0.00 | 69 | 1011.1 |
| 20260507143520 | 86 | 28 | 3.0 | 0.0 | 0.00 | 0.00 | 0.00 | 69 | 1011.1 |
| 20260507143020 | 86 | 89 | 2.0 | 0.0 | 0.00 | 0.00 | 0.00 | 69 | 1011.1 |
| 20260507142517 | 86 | 56 | 1.0 | 0.0 | 0.00 | 0.00 | 0.00 | 69 | 1011.0 |
| 20260507142015 | 86 | 100 | 2.0 | 0.0 | 0.00 | 0.00 | 0.00 | 69 | 1011.1 |
| 20260507141511 | 86 | 63 | 3.0 | 0.0 | 0.00 | 0.00 | 0.00 | 69 | 1011.2 |
| 20260507141012 | 86 | 18 | 1.0 | 0.0 | 0.00 | 0.00 | 0.00 | 69 | 1011.3 |
| 20260507140704 | 85 | 321 | 2.0 | 0.0 | 0.00 | 0.00 | 0.00 | 69 | 1011.3 |
| 20260507140511 | 85 | 321 | 2.0 | 0.0 | 0.00 | 0.00 | 0.00 | 69 | 1011.3 |
| 20260507140010 | 85 | 121 | 1.0 | 0.0 | 0.00 | 0.00 | 0.00 | 70 | 1011.2 |
| 20260507135509 | 85 | 89 | 1.0 | 0.0 | 0.00 | 0.00 | 0.00 | 70 | 1011.1 |
| 20260507135007 | 85 | 39 | 2.0 | 0.0 | 0.00 | 0.00 | 0.00 | 70 | 1011.2 |
| 20260507134507 | 85 | 145 | 3.0 | 0.0 | 0.00 | 0.00 | 0.00 | 70 | 1011.2 |
| 20260507133505 | 85 | 178 | 3.0 | 0.0 | 0.00 | 0.00 | 0.00 | 71 | 1011.2 |
| 20260507133005 | 85 | 161 | 2.0 | 0.0 | 0.00 | 0.00 | 0.00 | 72 | 1011.3 |
| 20260507132504 | 84 | 23 | 1.0 | 0.0 | 0.00 | 0.00 | 0.00 | 72 | 1011.2 |
| 20260507132001 | 84 | 56 | 2.0 | 0.0 | 0.00 | 0.00 | 0.00 | 72 | 1011.2 |
| 20260507131501 | 84 | 82 | 1.0 | 0.0 | 0.00 | 0.00 | 0.00 | 72 | 1011.3 |
| 20260507131000 | 84 | 28 | 1.0 | 0.0 | 0.00 | 0.00 | 0.00 | 73 | 1011.2 |
| 20260507130500 | 83 | 63 | 0.0 | 0.0 | 0.00 | 0.00 | 0.00 | 73 | 1011.2 |
| 20260507130205 | 83 | 193 | 6.0 | 0.0 | 0.00 | 0.00 | 0.00 | 73 | 1011.3 |
| 20260507130031 | 83 | 193 | 6.0 | 0.0 | 0.00 | 0.00 | 0.00 | 73 | 1011.3 |
| 20260507130000 | 83 | 193 | 6.0 | 0.0 | 0.00 | 0.00 | 0.00 | 73 | 1011.3 |
| 20260507125500 | 83 | 269 | 2.0 | 0.0 | 0.00 | 0.00 | 0.00 | 73 | 1011.2 |
| 20260507124959 | 83 | 328 | 4.0 | 0.0 | 0.00 | 0.00 | 0.00 | 73 | 1011.2 |
| 20260507124459 | 83 | 169 | 3.0 | 0.0 | 0.00 | 0.00 | 0.00 | 73 | 1011.2 |
| 20260507123959 | 83 | 188 | 3.0 | 0.0 | 0.00 | 0.00 | 0.00 | 74 | 1011.3 |
| 20260507123459 | 83 | 135 | 2.0 | 0.0 | 0.00 | 0.00 | 0.00 | 74 | 1011.2 |
| 20260507122954 | 82 | 79 | 3.0 | 0.0 | 0.00 | 0.00 | 0.00 | 75 | 1011.2 |
| 20260507122447 | 82 | 72 | 2.0 | 0.0 | 0.00 | 0.00 | 0.00 | 75 | 1011.1 |
| 20260507121947 | 82 | 72 | 3.0 | 0.0 | 0.00 | 0.00 | 0.00 | 75 | 1011.0 |
| 20260507121445 | 82 | 178 | 4.0 | 0.0 | 0.00 | 0.00 | 0.00 | 75 | 1011.0 |
| 20260507120945 | 81 | 187 | 1.0 | 0.0 | 0.00 | 0.00 | 0.00 | 76 | 1011.0 |
| 20260507120444 | 81 | 46 | 3.0 | 0.0 | 0.00 | 0.00 | 0.00 | 77 | 1010.8 |
| 20260507115938 | 81 | 117 | 1.0 | 0.0 | 0.00 | 0.00 | 0.00 | 77 | 1010.6 |
| 20260507115438 | 81 | 84 | 1.0 | 0.0 | 0.00 | 0.00 | 0.00 | 78 | 1010.5 |
| 20260507114937 | 80 | 178 | 4.0 | 0.0 | 0.00 | 0.00 | 0.00 | 78 | 1010.5 |
| 20260507114437 | 80 | 166 | 3.0 | 0.0 | 0.00 | 0.00 | 0.00 | 78 | 1010.5 |
| 20260507113936 | 80 | 1 | 3.0 | 0.0 | 0.00 | 0.00 | 0.00 | 78 | 1010.5 |
| 20260507113632 | 80 | 18 | 2.0 | 0.0 | 0.00 | 0.00 | 0.00 | 79 | 1010.4 |
| 20260507113436 | 80 | 18 | 2.0 | 0.0 | 0.00 | 0.00 | 0.00 | 79 | 1010.4 |
| 20260507112935 | 79 | 6 | 3.0 | 0.0 | 0.00 | 0.00 | 0.00 | 79 | 1010.3 |
| 20260507112435 | 79 | 125 | 6.0 | 0.0 | 0.00 | 0.00 | 0.00 | 79 | 1010.2 |
| 20260507111934 | 79 | 93 | 6.0 | 0.0 | 0.00 | 0.00 | 0.00 | 79 | 1010.2 |
| 20260507111430 | 79 | 89 | 3.0 | 0.0 | 0.00 | 0.00 | 0.00 | 79 | 1010.2 |
| 20260507110930 | 79 | 89 | 6.0 | 0.0 | 0.00 | 0.00 | 0.00 | 79 | 1010.2 |
| 20260507110421 | 79 | 76 | 2.0 | 0.0 | 0.00 | 0.00 | 0.00 | 79 | 1010.2 |
| 20260507105921 | 79 | 35 | 2.0 | 0.0 | 0.00 | 0.00 | 0.00 | 79 | 1010.0 |
| 20260507105417 | 79 | 89 | 4.0 | 0.0 | 0.00 | 0.00 | 0.00 | 79 | 1009.8 |
| 20260507104916 | 79 | 84 | 5.0 | 0.0 | 0.00 | 0.00 | 0.00 | 79 | 1009.7 |
| 20260507104455 | 79 | 53 | 3.0 | 0.0 | 0.00 | 0.00 | 0.00 | 80 | 1009.5 |
| 20260507104416 | 79 | 89 | 3.0 | 0.0 | 0.00 | 0.00 | 0.00 | 80 | 1009.7 |
| 20260507103915 | 79 | 53 | 3.0 | 0.0 | 0.00 | 0.00 | 0.00 | 80 | 1009.5 |
| 20260507103415 | 79 | 84 | 7.0 | 0.0 | 0.00 | 0.00 | 0.00 | 79 | 1009.5 |
| 20260507103009 | 79 | 96 | 5.0 | 0.0 | 0.00 | 0.00 | 0.00 | 79 | 1009.2 |
| 20260507102914 | 79 | 102 | 5.0 | 0.0 | 0.00 | 0.00 | 0.00 | 79 | 1009.5 |
| 20260507102414 | 79 | 89 | 3.0 | 0.0 | 0.00 | 0.00 | 0.00 | 79 | 1009.2 |
| 20260507101911 | 79 | 96 | 5.0 | 0.0 | 0.00 | 0.00 | 0.00 | 79 | 1009.2 |
| 20260507101840 | 79 | 84 | 4.0 | 0.0 | 0.00 | 0.00 | 0.00 | 78 | 1009.1 |
| 20260507101409 | 79 | 89 | 4.0 | 0.0 | 0.00 | 0.00 | 0.00 | 79 | 1009.0 |
| 20260507100908 | 79 | 84 | 4.0 | 0.0 | 0.00 | 0.00 | 0.00 | 78 | 1009.1 |
| 20260507100456 | 79 | 89 | 5.0 | 0.0 | 0.00 | 0.00 | 0.00 | 79 | 1009.1 |
| 20260507100406 | 79 | 89 | 4.0 | 0.0 | 0.00 | 0.00 | 0.00 | 78 | 1009.0 |
| 20260507095906 | 79 | 89 | 5.0 | 0.0 | 0.00 | 0.00 | 0.00 | 79 | 1009.1 |
| 20260507095406 | 79 | 89 | 2.0 | 0.0 | 0.00 | 0.00 | 0.00 | 78 | 1009.1 |
| 20260507094905 | 79 | 86 | 3.0 | 0.0 | 0.00 | 0.00 | 0.00 | 78 | 1009.0 |
| 20260507093748 | 79 | 89 | 5.0 | 0.0 | 0.00 | 0.00 | 0.00 | 78 | 1008.8 |
| 20260507093148 | 79 | 89 | 5.0 | 0.0 | 0.00 | 0.00 | 0.00 | 78 | 1008.8 |
| 20260507092603 | 79 | 89 | 2.0 | 0.0 | 0.00 | 0.00 | 0.00 | 77 | 1008.9 |
| 20260507092103 | 79 | 98 | 1.0 | 0.0 | 0.00 | 0.00 | 0.00 | 77 | 1008.9 |
| 20260507091602 | 79 | 74 | 4.0 | 0.0 | 0.00 | 0.00 | 0.00 | 77 | 1008.9 |
| 20260507091401 | 79 | 68 | 2.0 | 0.0 | 0.00 | 0.00 | 0.00 | 77 | 1008.9 |
| 20260507091102 | 79 | 68 | 2.0 | 0.0 | 0.00 | 0.00 | 0.00 | 77 | 1008.9 |
| 20260507084737 | 79 | 15 | 3.0 | 0.0 | 0.00 | 0.00 | 0.00 | 77 | 1008.8 |
| 20260507084234 | 79 | 53 | 3.0 | 0.0 | 0.00 | 0.00 | 0.00 | 76 | 1008.7 |
| 20260507083734 | 79 | 9 | 3.0 | 0.0 | 0.00 | 0.00 | 0.00 | 76 | 1008.8 |
| 20260507083232 | 79 | 76 | 8.0 | 0.0 | 0.00 | 0.00 | 0.00 | 76 | 1008.9 |
| 20260507082727 | 79 | 8 | 5.0 | 0.0 | 0.00 | 0.00 | 0.00 | 76 | 1008.9 |
| 20260507082219 | 79 | 28 | 1.0 | 0.0 | 0.00 | 0.00 | 0.00 | 76 | 1008.8 |
| 20260507081717 | 79 | 83 | 3.0 | 0.0 | 0.00 | 0.00 | 0.00 | 76 | 1008.8 |
| 20260507081213 | 79 | 1 | 3.0 | 0.0 | 0.00 | 0.00 | 0.00 | 75 | 1008.9 |
| 20260507080713 | 79 | 76 | 1.0 | 0.0 | 0.00 | 0.00 | 0.00 | 75 | 1008.9 |
| 20260507080213 | 79 | 11 | 3.0 | 0.0 | 0.00 | 0.00 | 0.00 | 75 | 1008.9 |
| 20260507075713 | 79 | 1 | 3.0 | 0.0 | 0.00 | 0.00 | 0.00 | 74 | 1009.0 |
| 20260507075212 | 79 | 98 | 4.0 | 0.0 | 0.00 | 0.00 | 0.00 | 74 | 1008.9 |
| 20260507074740 | 79 | 89 | 3.0 | 0.0 | 0.00 | 0.00 | 0.00 | 74 | 1008.9 |
| 20260507074212 | 79 | 89 | 7.0 | 0.0 | 0.00 | 0.00 | 0.00 | 74 | 1009.1 |
| 20260507073703 | 80 | 15 | 2.0 | 0.0 | 0.00 | 0.00 | 0.00 | 73 | 1009.2 |
| 20260507073201 | 79 | 81 | 1.0 | 0.0 | 0.00 | 0.00 | 0.00 | 73 | 1009.4 |
| 20260507072701 | 80 | 77 | 2.0 | 0.0 | 0.00 | 0.00 | 0.00 | 73 | 1009.3 |
| 20260507072555 | 80 | 223 | 2.0 | 0.0 | 0.00 | 0.00 | 0.00 | 73 | 1009.1 |
| 20260507072157 | 80 | 223 | 2.0 | 0.0 | 0.00 | 0.00 | 0.00 | 73 | 1009.1 |
| 20260507071657 | 80 | 354 | 2.0 | 0.0 | 0.00 | 0.00 | 0.00 | 74 | 1009.1 |
| 20260507071157 | 80 | 161 | 2.0 | 0.0 | 0.00 | 0.00 | 0.00 | 73 | 1009.2 |
| 20260507071005 | 80 | 20 | 2.0 | 0.0 | 0.00 | 0.00 | 0.00 | 73 | 1009.2 |
| 20260507070655 | 80 | 20 | 2.0 | 0.0 | 0.00 | 0.00 | 0.00 | 73 | 1009.2 |
| 20260507070626 | 81 | 4 | 4.0 | 0.0 | 0.00 | 0.00 | 0.00 | 72 | 1009.3 |
| 20260507070155 | 81 | 4 | 4.0 | 0.0 | 0.00 | 0.00 | 0.00 | 72 | 1009.3 |
| 20260507065650 | 80 | 340 | 2.0 | 0.0 | 0.00 | 0.00 | 0.00 | 71 | 1009.2 |
| 20260507065150 | 80 | 23 | 1.0 | 0.0 | 0.00 | 0.00 | 0.00 | 71 | 1009.3 |
| 20260507064645 | 80 | 1 | 4.0 | 0.0 | 0.00 | 0.00 | 0.00 | 71 | 1009.3 |
| 20260507064143 | 79 | 189 | 3.0 | 0.0 | 0.00 | 0.00 | 0.00 | 72 | 1009.6 |
| 20260507063641 | 80 | 95 | 11.0 | 0.0 | 0.00 | 0.00 | 0.00 | 71 | 1009.6 |
| 20260507063440 | 79 | 89 | 4.0 | 0.0 | 0.00 | 0.00 | 0.00 | 72 | 1009.6 |
| 20260507063141 | 79 | 28 | 1.0 | 0.0 | 0.00 | 0.00 | 0.00 | 72 | 1009.5 |
| 20260507062639 | 79 | 89 | 4.0 | 0.0 | 0.00 | 0.00 | 0.00 | 72 | 1009.6 |
| 20260507062553 | 79 | 204 | 4.0 | 0.0 | 0.00 | 0.00 | 0.00 | 71 | 1009.6 |
| 20260507062138 | 79 | 204 | 4.0 | 0.0 | 0.00 | 0.00 | 0.00 | 71 | 1009.6 |
| 20260507061638 | 80 | 202 | 5.0 | 0.0 | 0.00 | 0.00 | 0.00 | 72 | 1009.7 |
| 20260507061137 | 79 | 98 | 8.0 | 0.0 | 0.00 | 0.00 | 0.00 | 73 | 1009.8 |
| 20260507060637 | 79 | 118 | 12.0 | 0.0 | 0.00 | 0.00 | 0.00 | 73 | 1009.9 |
| 20260507060446 | 79 | 108 | 9.0 | 0.0 | 0.00 | 0.00 | 0.00 | 73 | 1010.0 |
| 20260507060135 | 79 | 108 | 9.0 | 0.0 | 0.00 | 0.00 | 0.00 | 73 | 1010.0 |
| 20260507055830 | 79 | 86 | 6.0 | 0.0 | 0.00 | 0.00 | 0.00 | 73 | 1010.1 |
| 20260507055635 | 79 | 86 | 6.0 | 0.0 | 0.00 | 0.00 | 0.00 | 73 | 1010.1 |
| 20260507055249 | 79 | 154 | 8.0 | 0.0 | 0.00 | 0.00 | 0.00 | 73 | 1010.2 |
| 20260507055134 | 79 | 154 | 8.0 | 0.0 | 0.00 | 0.00 | 0.00 | 73 | 1010.2 |
| 20260507054809 | 80 | 122 | 8.0 | 0.0 | 0.00 | 0.00 | 0.00 | 73 | 1010.3 |
| 20260507054634 | 80 | 122 | 8.0 | 0.0 | 0.00 | 0.00 | 0.00 | 73 | 1010.3 |
| 20260507054226 | 79 | 269 | 3.0 | 0.0 | 0.00 | 0.00 | 0.00 | 73 | 1010.3 |
| 20260507054133 | 79 | 269 | 3.0 | 0.0 | 0.00 | 0.00 | 0.00 | 73 | 1010.3 |
| 20260507053631 | 80 | 117 | 4.0 | 0.0 | 0.00 | 0.00 | 0.00 | 73 | 1010.3 |
| 20260507053432 | 79 | 178 | 5.0 | 0.0 | 0.00 | 0.00 | 0.00 | 73 | 1010.3 |
| 20260507053131 | 79 | 178 | 5.0 | 0.0 | 0.00 | 0.00 | 0.00 | 73 | 1010.3 |
| 20260507052625 | 79 | 117 | 7.0 | 0.0 | 0.00 | 0.00 | 0.00 | 73 | 1010.3 |
| 20260507051623 | 79 | 110 | 10.0 | 0.0 | 0.00 | 0.00 | 0.00 | 72 | 1010.5 |
| 20260507051123 | 79 | 259 | 3.0 | 0.0 | 0.00 | 0.00 | 0.00 | 72 | 1010.5 |
| 20260507050623 | 79 | 115 | 12.0 | 0.0 | 0.00 | 0.00 | 0.00 | 73 | 1010.7 |
| 20260507050116 | 78 | 173 | 4.0 | 0.0 | 0.00 | 0.00 | 0.00 | 73 | 1010.6 |
| 20260507045615 | 78 | 105 | 11.0 | 0.0 | 0.00 | 0.00 | 0.00 | 72 | 1010.7 |
| 20260507045115 | 78 | 115 | 13.0 | 0.0 | 0.00 | 0.00 | 0.00 | 72 | 1010.7 |
| 20260507044614 | 78 | 108 | 9.0 | 0.0 | 0.00 | 0.00 | 0.00 | 72 | 1010.6 |
| 20260507044141 | 78 | 107 | 9.0 | 0.0 | 0.00 | 0.00 | 0.00 | 72 | 1010.6 |
| 20260507044110 | 78 | 107 | 9.0 | 0.0 | 0.00 | 0.00 | 0.00 | 72 | 1010.6 |
| 20260507043609 | 78 | 110 | 12.0 | 0.0 | 0.00 | 0.00 | 0.00 | 73 | 1010.6 |
| 20260507043106 | 78 | 113 | 9.0 | 0.0 | 0.00 | 0.00 | 0.00 | 73 | 1010.6 |
| 20260507042636 | 78 | 105 | 12.0 | 0.0 | 0.00 | 0.00 | 0.00 | 73 | 1010.7 |
| 20260507042605 | 78 | 105 | 12.0 | 0.0 | 0.00 | 0.00 | 0.00 | 73 | 1010.7 |
| 20260507042052 | 78 | 118 | 10.0 | 0.0 | 0.00 | 0.00 | 0.00 | 73 | 1010.8 |
| 20260507041717 | 78 | 105 | 11.0 | 0.0 | 0.00 | 0.00 | 0.00 | 74 | 1011.0 |
| 20260507040931 | 78 | 112 | 10.0 | 0.0 | 0.00 | 0.00 | 0.00 | 73 | 1010.8 |
| 20260507040605 | 79 | 113 | 9.0 | 0.0 | 0.00 | 0.00 | 0.00 | 74 | 1010.8 |
| 20260507040431 | 79 | 113 | 9.0 | 0.0 | 0.00 | 0.00 | 0.00 | 74 | 1010.8 |
| 20260507040129 | 79 | 107 | 12.0 | 0.0 | 0.00 | 0.00 | 0.00 | 74 | 1010.9 |
| 20260507035312 | 79 | 108 | 11.0 | 0.0 | 0.00 | 0.00 | 0.00 | 73 | 1010.7 |
| 20260507034810 | 79 | 89 | 2.0 | 0.0 | 0.00 | 0.00 | 0.00 | 73 | 1010.9 |
| 20260507034309 | 79 | 93 | 8.0 | 0.0 | 0.00 | 0.00 | 0.00 | 73 | 1011.0 |
| 20260507033809 | 79 | 86 | 10.0 | 0.0 | 0.00 | 0.00 | 0.00 | 73 | 1011.0 |
| 20260507033308 | 79 | 89 | 14.0 | 0.0 | 0.00 | 0.00 | 0.00 | 73 | 1011.0 |
| 20260507032506 | 79 | 93 | 9.0 | 0.0 | 0.00 | 0.00 | 0.00 | 73 | 1011.2 |
| 20260507032308 | 79 | 93 | 9.0 | 0.0 | 0.00 | 0.00 | 0.00 | 73 | 1011.2 |
| 20260507031806 | 79 | 94 | 6.0 | 0.0 | 0.00 | 0.00 | 0.00 | 72 | 1011.1 |
| 20260507031305 | 79 | 298 | 3.0 | 0.0 | 0.00 | 0.00 | 0.00 | 72 | 1011.1 |
| 20260507030805 | 79 | 89 | 7.0 | 0.0 | 0.00 | 0.00 | 0.00 | 71 | 1011.1 |
| 20260507030305 | 79 | 89 | 12.0 | 0.0 | 0.00 | 0.00 | 0.00 | 71 | 1011.1 |
| 20260507025803 | 80 | 96 | 4.0 | 0.0 | 0.00 | 0.00 | 0.00 | 71 | 1011.1 |
| 20260507025302 | 79 | 51 | 5.0 | 0.0 | 0.00 | 0.00 | 0.00 | 70 | 1011.0 |
| 20260507024801 | 80 | 89 | 6.0 | 0.0 | 0.00 | 0.00 | 0.00 | 70 | 1011.1 |
| 20260507024301 | 80 | 145 | 3.0 | 0.0 | 0.00 | 0.00 | 0.00 | 70 | 1010.8 |
| 20260507023758 | 80 | 95 | 5.0 | 0.0 | 0.00 | 0.00 | 0.00 | 71 | 1010.8 |